TimeCDT,TemperatureF,Dew PointF,Humidity,Sea Level PressureIn,VisibilityMPH,Wind Direction,Wind SpeedMPH,Gust SpeedMPH,PrecipitationIn,Events,Conditions,WindDirDegrees,DateUTC
12:15 AM,64.4,45.7,51,29.97,10.0,South,11.5,-,N/A,,Clear,180,2013-10-09 05:15:00
12:35 AM,63.9,46.0,52,29.97,10.0,South,10.4,16.1,N/A,,Clear,180,2013-10-09 05:35:00
12:55 AM,63.3,46.2,54,29.98,10.0,South,10.4,16.1,N/A,,Clear,180,2013-10-09 05:55:00
1:15 AM,62.8,46.2,55,29.98,10.0,South,9.2,-,N/A,,Clear,180,2013-10-09 06:15:00
1:35 AM,62.4,46.4,56,29.99,10.0,South,9.2,16.1,N/A,,Clear,170,2013-10-09 06:35:00
1:55 AM,62.1,46.4,56,30.00,10.0,South,11.5,16.1,N/A,,Clear,190,2013-10-09 06:55:00
2:15 AM,61.7,46.6,58,30.00,10.0,South,10.4,-,N/A,,Clear,180,2013-10-09 07:15:00
2:35 AM,61.7,46.6,58,30.00,10.0,South,10.4,-,N/A,,Clear,190,2013-10-09 07:35:00
2:55 AM,61.2,46.8,59,30.00,10.0,South,9.2,16.1,N/A,,Clear,180,2013-10-09 07:55:00
3:15 AM,61.2,46.8,59,30.00,10.0,South,9.2,-,N/A,,Clear,180,2013-10-09 08:15:00
3:35 AM,61.0,46.9,60,30.01,10.0,South,8.1,-,N/A,,Clear,180,2013-10-09 08:35:00
3:55 AM,60.1,47.1,62,30.01,10.0,South,8.1,-,N/A,,Clear,180,2013-10-09 08:55:00
4:15 AM,60.1,47.3,63,30.01,10.0,South,8.1,-,N/A,,Clear,170,2013-10-09 09:15:00
4:35 AM,59.2,47.3,65,30.02,10.0,South,8.1,-,N/A,,Clear,170,2013-10-09 09:35:00
4:55 AM,58.5,47.3,66,30.02,10.0,South,8.1,-,N/A,,Clear,170,2013-10-09 09:55:00
5:15 AM,58.5,47.7,67,30.02,10.0,South,9.2,-,N/A,,Clear,170,2013-10-09 10:15:00
5:35 AM,57.4,47.8,70,30.02,10.0,SSE,5.8,-,N/A,,Clear,160,2013-10-09 10:35:00
5:55 AM,56.7,47.8,72,30.03,10.0,SSE,4.6,-,N/A,,Clear,160,2013-10-09 10:55:00
6:15 AM,56.3,48.2,74,30.03,10.0,SSE,6.9,-,N/A,,Clear,160,2013-10-09 11:15:00
6:35 AM,56.3,48.2,74,30.03,10.0,SSE,6.9,-,N/A,,Clear,160,2013-10-09 11:35:00
6:55 AM,56.3,48.2,74,30.03,10.0,South,6.9,-,N/A,,Clear,170,2013-10-09 11:55:00
7:15 AM,55.9,48.2,75,30.03,10.0,South,4.6,-,N/A,,Clear,180,2013-10-09 12:15:00
7:35 AM,56.1,48.4,75,30.03,10.0,South,6.9,-,N/A,,Clear,170,2013-10-09 12:35:00
7:55 AM,56.3,48.6,75,30.04,10.0,South,3.5,-,N/A,,Clear,170,2013-10-09 12:55:00
8:15 AM,57.4,48.9,73,30.04,10.0,SSE,4.6,-,N/A,,Clear,160,2013-10-09 13:15:00
8:35 AM,58.5,49.3,72,30.05,10.0,SSE,5.8,-,N/A,,Clear,160,2013-10-09 13:35:00
8:55 AM,59.2,49.8,71,30.06,10.0,South,6.9,-,N/A,,Clear,170,2013-10-09 13:55:00
9:15 AM,61.2,49.8,66,30.06,10.0,South,10.4,-,N/A,,Clear,170,2013-10-09 14:15:00
9:35 AM,62.1,49.8,64,30.06,10.0,South,11.5,17.3,N/A,,Clear,180,2013-10-09 14:35:00
9:55 AM,61.9,49.8,65,30.06,10.0,South,11.5,16.1,N/A,,Clear,180,2013-10-09 14:55:00
10:15 AM,63.7,50.4,62,30.07,10.0,SSW,9.2,-,N/A,,Clear,200,2013-10-09 15:15:00
10:35 AM,64.0,50.5,61,30.08,10.0,SSW,10.4,16.1,N/A,,Clear,200,2013-10-09 15:35:00
10:55 AM,65.3,50.4,58,30.08,10.0,South,12.7,16.1,N/A,,Clear,180,2013-10-09 15:55:00
11:15 AM,66.2,50.5,57,30.08,10.0,SSW,13.8,18.4,N/A,,Clear,210,2013-10-09 16:15:00
11:35 AM,68.0,50.9,54,30.08,10.0,SSW,10.4,-,N/A,,Clear,200,2013-10-09 16:35:00
11:55 AM,68.4,50.4,53,30.08,10.0,SSW,11.5,18.4,N/A,,Clear,200,2013-10-09 16:55:00
12:15 PM,69.1,51.3,53,30.07,10.0,South,15.0,20.7,N/A,,Clear,170,2013-10-09 17:15:00
12:35 PM,69.6,51.3,52,30.07,10.0,SSE,12.7,18.4,N/A,,Clear,160,2013-10-09 17:35:00
12:55 PM,70.7,50.9,49,30.07,10.0,South,17.3,-,N/A,,Clear,180,2013-10-09 17:55:00
1:15 PM,71.2,50.5,48,30.06,10.0,South,12.7,19.6,N/A,,Clear,180,2013-10-09 18:15:00
1:35 PM,72.3,51.1,47,30.06,10.0,South,12.7,-,N/A,,Clear,190,2013-10-09 18:35:00
1:55 PM,72.7,50.5,46,30.06,10.0,South,16.1,21.9,N/A,,Clear,170,2013-10-09 18:55:00
2:15 PM,73.8,50.2,43,30.05,10.0,South,13.8,20.7,N/A,,Clear,180,2013-10-09 19:15:00
2:35 PM,74.7,50.2,42,30.05,10.0,South,13.8,19.6,N/A,,Clear,180,2013-10-09 19:35:00
2:55 PM,74.7,49.3,41,30.05,10.0,South,15.0,19.6,N/A,,Clear,180,2013-10-09 19:55:00
3:15 PM,75.0,48.6,39,30.05,10.0,SSW,12.7,19.6,N/A,,Clear,200,2013-10-09 20:15:00
3:55 PM,75.4,46.6,36,30.05,10.0,South,10.4,-,N/A,,Clear,170,2013-10-09 20:55:00
4:15 PM,75.2,45.1,34,30.05,10.0,SSW,12.7,-,N/A,,Clear,200,2013-10-09 21:15:00
4:35 PM,74.8,46.2,36,30.05,10.0,SSE,12.7,19.6,N/A,,Clear,160,2013-10-09 21:35:00
4:55 PM,74.5,46.2,37,30.06,10.0,South,11.5,18.4,N/A,,Clear,180,2013-10-09 21:55:00
5:15 PM,73.2,48.6,42,30.05,10.0,SSE,12.7,17.3,N/A,,Clear,150,2013-10-09 22:15:00
5:35 PM,72.1,48.4,43,30.04,10.0,SSE,13.8,17.3,N/A,,Clear,160,2013-10-09 22:35:00
5:55 PM,70.9,48.9,46,30.04,10.0,SSE,9.2,-,N/A,,Clear,160,2013-10-09 22:55:00
6:15 PM,69.3,49.1,49,30.04,10.0,SSE,9.2,-,N/A,,Clear,160,2013-10-09 23:15:00
6:55 PM,66.0,50.0,56,30.04,10.0,SSE,5.8,-,N/A,,Clear,150,2013-10-09 23:55:00
7:15 PM,65.3,49.8,57,30.05,10.0,SE,4.6,-,N/A,,Clear,140,2013-10-10 00:15:00
7:35 PM,64.2,50.0,60,30.05,10.0,SE,5.8,-,N/A,,Clear,130,2013-10-10 00:35:00
7:55 PM,63.7,50.0,61,30.05,10.0,SE,5.8,-,N/A,,Clear,130,2013-10-10 00:55:00
8:15 PM,63.0,50.2,63,30.05,10.0,SE,4.6,-,N/A,,Clear,140,2013-10-10 01:15:00
8:35 PM,60.6,50.2,68,30.05,10.0,ESE,4.6,-,N/A,,Clear,110,2013-10-10 01:35:00
8:55 PM,58.5,50.2,74,30.06,10.0,ESE,4.6,-,N/A,,Clear,120,2013-10-10 01:55:00
9:15 PM,56.8,49.8,77,30.06,10.0,ESE,4.6,-,N/A,,Clear,120,2013-10-10 02:15:00
9:35 PM,58.1,50.0,74,30.06,10.0,ESE,5.8,-,N/A,,Clear,110,2013-10-10 02:35:00
9:55 PM,56.5,49.6,78,30.06,10.0,East,5.8,-,N/A,,Clear,100,2013-10-10 02:55:00
10:15 PM,58.1,50.0,74,30.07,10.0,East,4.6,-,N/A,,Clear,90,2013-10-10 03:15:00
10:35 PM,57.0,50.0,77,30.08,10.0,East,4.6,-,N/A,,Clear,90,2013-10-10 03:35:00
10:55 PM,55.9,49.3,78,30.08,10.0,East,5.8,-,N/A,,Clear,100,2013-10-10 03:55:00
11:15 PM,55.9,49.8,80,30.08,10.0,East,5.8,-,N/A,,Clear,100,2013-10-10 04:15:00
11:55 PM,52.3,48.2,86,30.09,10.0,East,3.5,-,N/A,,Clear,100,2013-10-10 04:55:00